Back to catalog

STARLINK-35076

AliveCommunicationsSSO
NORAD 65457·PAYLOAD·🇺🇸 United States

Launched Sep 3, 2025 from Vandenberg Space Force Base

Loading…

Next Passes (next 24 hours)

TLE

FreshSource: CelesTrak SupGP

Epoch: Sep 14, 2026, 15:30 UTC

1 65457C 25194Z   26257.64631944 -.00035203  00000+0 -10929-2 0  2571
2 65457  97.2842 107.4016 0001568  87.7350 239.7630 15.33452768    15

Track STARLINK-35076 in real time with AllMySat

Download on the App Store